THOR ABLESTAR DEB, 643

Orbit data source: Space-Track

THOR ABLESTAR DEB, 643 is space debris in LEO originally from a launch on Thu, 29 Jun 1961 UTC launched from the Air Force Eastern Test Range (AFETR). Debris objects in space refer to the collection of defunct objects orbiting the Earth. Examples of debris include non-operational satellites, rocket bodies, and fragments generated from explosions, collisions, or faulty payload assembly.

Loading next visibility...
Identifier
643, 1961-015GU
Orbit
LEO
Last TLE update
8 hours ago
Origin
Manufacturer
Unknown
Mission
Spacecraft
Bus & Motor
Unknown
Mass
Unknown
Launch date (UTC)
1961-06-29 (64 years ago)
Launch vehicle
Unknown
Launch site
Air Force Eastern Test Range (AFETR)
Object type
Payload
Rocket body
Debris
Shape & HBR
Unknown
Radar Cross Section
Small (<0.1 m²)

Expand to show TLE details & history

TLE from 8 hours ago
0 THOR ABLESTAR DEB
1 00643U 61015GU  25183.94928513  .00000513  00000-0  82544-3 0  9991
2 00643  66.3685 129.3608 0337463 235.0568 121.8353 13.35817100 63330
Epoch: 2025-07-02T22:46Z
TLE epoch observation values (Epoch: 2025-07-02T22:46:58.235Z)
Latitude
0.00003°
Longitude
-133.60488°
Altitude
1,266.463 km
Speed
7.155 km/s
True Right ascension
08h 37m 26s
True Declination
0° 00' 00"
Sunlit
Object was in daylight at epoch
Visualization orbit readout
Latitude
50.14115°
Longitude
14.22777°
Altitude
1,217.95 km
Speed
7.209 km/s
Apparent Right ascension
01h 05m 47s
Apparent Declination
85° 46' 21"
Sunlit
Object is in daylight
Visualization observer readout
Local Sidereal Time
18:22:50
Azimuth
5.348° NNE
Elevation
39.005°
Doppler factor
1
Orbital elements
Apogee altitude
1,376.532 km
Perigee altitude
870.235 km
Semi-major axis
7,501.521 km
Eccentricity
0.03375
Inclination
66.3685°
RAAN
129.3608°
Arg. of periapsis
235.0568°
True anomaly
Unknown
Mean anomaly
121.8353°
Eccentric anomaly
Unknown
Mean motion
3.34056 °/min
Orbital period
107.77 mins
BSTAR
0.00082544
Loading maneuver chart data...
Loading SW <> Apogee altitude chart data...

THOR ABLESTAR DEB Visibility forecast

Observer location: undefined°, undefined°

Span
Click to sort rows by Start time (UTC) header in descending order
Start Az.
Max El. time (UTC)
Max El. Az.
Max El.
End time (UTC)
End Az.
9 mins2025-07-03 06:37:08.256Z5.39° NNE2025-07-03 06:39:08.256Z43.428° NE37.826°2025-07-03 06:46:08.256Z127.971° SE
10 mins2025-07-03 08:25:08.256Z306.908° NW2025-07-03 08:30:08.256Z253.998° W28.333°2025-07-03 08:35:08.256Z197.962° SSW
11 mins2025-07-03 20:28:08.256Z144.459° SSE2025-07-03 20:33:08.256Z98.757° ESE23.248°2025-07-03 20:39:08.256Z52.905° ENE
15 mins2025-07-03 22:16:08.256Z217.373° SW2025-07-03 22:23:08.256Z304.882° NW43.96°2025-07-03 22:31:08.256Z26.697° NE
10 mins2025-07-04 00:11:08.256Z284.962° WNW2025-07-04 00:16:08.256Z327.692° NNW20.567°2025-07-04 00:21:08.256Z7.358° NNE
12 mins2025-07-04 05:54:08.256Z346.81° N2025-07-04 06:00:08.256Z49.719° ENE30.999°2025-07-04 06:06:08.256Z112.051° ESE
|